EN

Hourly Weather Amelin

Today, 23 January, Saturday

Time Temperature Precipitation Wind Pressure Humidity
00:00 +2°C° 0 mm 2 mps 724 mmHg 92%
01:00 +2°C° 0 mm 2 mps 724 mmHg 92%
02:00 +2°C° 0 mm 2 mps 724 mmHg 92%
03:00 +1°C° 0 mm 3 mps 724 mmHg 91%
04:00 +1°C° 0 mm 3 mps 724 mmHg 91%
05:00 0°C° 0.3 mm 4 mps 723 mmHg 91%
06:00 +1°C° 0.3 mm 4 mps 723 mmHg 91%
07:00 +1°C° 0.3 mm 5 mps 722 mmHg 91%
08:00 +1°C° 0.2 mm 5 mps 722 mmHg 91%
09:00 +2°C° 0.2 mm 5 mps 722 mmHg 90%
10:00 +2°C° 0.2 mm 5 mps 721 mmHg 90%
11:00 +2°C° 0 mm 5 mps 721 mmHg 89%
12:00 +4°C° 0 mm 4 mps 721 mmHg 88%
13:00 +4°C° 0 mm 4 mps 721 mmHg 86%
14:00 +4°C° 0 mm 4 mps 721 mmHg 86%
15:00 +4°C° 0 mm 4 mps 720 mmHg 86%
16:00 +4°C° 0 mm 4 mps 720 mmHg 86%
17:00 +2°C° 0 mm 5 mps 721 mmHg 85%
18:00 +2°C° 0 mm 5 mps 721 mmHg 83%
19:00 +1°C° 0 mm 5 mps 721 mmHg 81%
20:00 0°C° 0 mm 5 mps 722 mmHg 83%
21:00 -1°C° 0 mm 4 mps 722 mmHg 85%
22:00 -1°C° 0 mm 4 mps 722 mmHg 86%
23:00 -1°C° 0 mm 3 mps 722 mmHg 87%

Tomorrow, 24 January, Sunday

Time Temperature Precipitation Wind Pressure Humidity
00:00 -1°C° 0 mm 3 mps 723 mmHg 87%
01:00 -2°C° 0 mm 3 mps 723 mmHg 88%
02:00 -2°C° 0 mm 2 mps 723 mmHg 88%
03:00 -2°C° 0 mm 2 mps 723 mmHg 88%
04:00 -2°C° 0 mm 2 mps 723 mmHg 89%
05:00 -2°C° 0 mm 2 mps 723 mmHg 88%
06:00 -2°C° 0 mm 2 mps 723 mmHg 88%
07:00 -2°C° 0 mm 2 mps 723 mmHg 87%
08:00 -1°C° 0 mm 2 mps 723 mmHg 86%
09:00 -1°C° 0 mm 2 mps 723 mmHg 85%
10:00 -1°C° 0 mm 3 mps 724 mmHg 83%
11:00 -1°C° 0.1 mm 2 mps 724 mmHg 86%
12:00 -1°C° 0.1 mm 2 mps 723 mmHg 88%
13:00 -1°C° 0.1 mm 2 mps 723 mmHg 91%
14:00 -1°C° 0.1 mm 2 mps 724 mmHg 92%
15:00 -1°C° 0.1 mm 2 mps 724 mmHg 93%
16:00 -1°C° 0.1 mm 2 mps 724 mmHg 94%
17:00 -1°C° 0 mm 2 mps 724 mmHg 94%
18:00 -2°C° 0 mm 2 mps 724 mmHg 93%
19:00 -2°C° 0 mm 2 mps 725 mmHg 93%
20:00 -2°C° 0 mm 2 mps 725 mmHg 93%
21:00 -2°C° 0 mm 2 mps 725 mmHg 93%
22:00 -2°C° 0 mm 2 mps 725 mmHg 94%
23:00 -3°C° 0 mm 2 mps 725 mmHg 94%

Day after tomorrow, 25 January, Monday

Time Temperature Precipitation Wind Pressure Humidity
00:00 -3°C° 0 mm 2 mps 725 mmHg 95%
01:00 -3°C° 0 mm 2 mps 725 mmHg 95%
02:00 -1°C° 0 mm 1 mps 725 mmHg 95%
03:00 -1°C° 0 mm 1 mps 726 mmHg 94%
04:00 -1°C° 0 mm 1 mps 726 mmHg 94%
05:00 -1°C° 0 mm 1 mps 726 mmHg 93%
06:00 -1°C° 0 mm 1 mps 727 mmHg 92%
07:00 -1°C° 0 mm 1 mps 727 mmHg 91%
08:00 -2°C° 0 mm 2 mps 727 mmHg 89%
09:00 -2°C° 0 mm 2 mps 728 mmHg 87%
10:00 -1°C° 0 mm 3 mps 728 mmHg 84%
11:00 -1°C° 0 mm 3 mps 728 mmHg 83%
12:00 -2°C° 0 mm 4 mps 728 mmHg 81%
13:00 -2°C° 0 mm 5 mps 729 mmHg 80%
14:00 -2°C° 0 mm 5 mps 729 mmHg 79%
15:00 -3°C° 0 mm 4 mps 729 mmHg 78%
16:00 -3°C° 0 mm 4 mps 729 mmHg 76%
17:00 -3°C° 0 mm 4 mps 729 mmHg 78%
18:00 -3°C° 0 mm 4 mps 730 mmHg 80%
19:00 -3°C° 0 mm 4 mps 730 mmHg 81%
20:00 -3°C° 0 mm 4 mps 730 mmHg 81%
21:00 -4°C° 0 mm 5 mps 730 mmHg 82%
22:00 -4°C° 0 mm 5 mps 730 mmHg 82%
23:00 -4°C° 0 mm 5 mps 730 mmHg 81%

26 January, Tuesday

Time Temperature Precipitation Wind Pressure Humidity
00:00 -4°C° 0 mm 5 mps 730 mmHg 80%
01:00 -4°C° 0 mm 5 mps 730 mmHg 79%
02:00 -5°C° 0 mm 6 mps 730 mmHg 79%
03:00 -5°C° 0 mm 6 mps 730 mmHg 78%
04:00 -5°C° 0 mm 6 mps 730 mmHg 78%
05:00 -5°C° 0 mm 6 mps 730 mmHg 78%
06:00 -5°C° 0 mm 6 mps 731 mmHg 79%
07:00 -6°C° 0 mm 7 mps 731 mmHg 80%
08:00 -6°C° 0 mm 7 mps 731 mmHg 80%
09:00 -6°C° 0 mm 7 mps 731 mmHg 79%
10:00 -6°C° 0 mm 7 mps 732 mmHg 79%
11:00 -4°C° 0 mm 7 mps 732 mmHg 79%
12:00 -4°C° 0 mm 7 mps 732 mmHg 79%
13:00 -4°C° 0 mm 7 mps 732 mmHg 79%
14:00 -4°C° 0.1 mm 7 mps 732 mmHg 80%
15:00 -4°C° 0.1 mm 7 mps 732 mmHg 82%
16:00 -4°C° 0.1 mm 7 mps 733 mmHg 83%
17:00 -4°C° 0 mm 7 mps 733 mmHg 80%
18:00 -4°C° 0 mm 7 mps 733 mmHg 77%
19:00 -4°C° 0 mm 7 mps 733 mmHg 73%
20:00 -4°C° 0 mm 7 mps 734 mmHg 76%
21:00 -4°C° 0 mm 6 mps 734 mmHg 79%
22:00 -5°C° 0 mm 6 mps 734 mmHg 82%
23:00 -5°C° 0 mm 6 mps 734 mmHg 83%

27 January, Wednesday

Time Temperature Precipitation Wind Pressure Humidity
00:00 -5°C° 0 mm 6 mps 734 mmHg 83%
01:00 -5°C° 0 mm 6 mps 734 mmHg 83%
02:00 -5°C° 0 mm 6 mps 733 mmHg 83%
03:00 -5°C° 0 mm 5 mps 733 mmHg 83%
04:00 -5°C° 0 mm 5 mps 733 mmHg 83%
05:00 -5°C° 0 mm 5 mps 733 mmHg 85%
06:00 -5°C° 0 mm 5 mps 733 mmHg 86%
07:00 -4°C° 0 mm 4 mps 733 mmHg 87%
08:00 -4°C° 0 mm 4 mps 733 mmHg 83%
09:00 -4°C° 0 mm 4 mps 733 mmHg 80%
10:00 -3°C° 0 mm 4 mps 733 mmHg 76%
11:00 -3°C° 0 mm 4 mps 733 mmHg 74%
12:00 -2°C° 0 mm 4 mps 732 mmHg 72%
13:00 -2°C° 0 mm 4 mps 732 mmHg 69%
14:00 -1°C° 0 mm 3 mps 732 mmHg 73%
15:00 -1°C° 0 mm 3 mps 732 mmHg 77%
16:00 -1°C° 0 mm 2 mps 732 mmHg 81%
17:00 -2°C° 0 mm 2 mps 733 mmHg 86%
18:00 -2°C° 0 mm 2 mps 733 mmHg 91%
19:00 0°C° 0 mm 1 mps 733 mmHg 96%
20:00 0°C° 0.1 mm 1 mps 733 mmHg 96%
21:00 0°C° 0.1 mm 1 mps 734 mmHg 96%
22:00 0°C° 0.1 mm 1 mps 734 mmHg 97%
23:00 0°C° 0.1 mm 1 mps 734 mmHg 97%

28 January, Thursday

Time Temperature Precipitation Wind Pressure Humidity
00:00 -2°C° 0.1 mm 2 mps 734 mmHg 96%
01:00 -2°C° 0.1 mm 2 mps 735 mmHg 96%
02:00 -2°C° 0.1 mm 3 mps 735 mmHg 95%
03:00 -2°C° 0.1 mm 3 mps 735 mmHg 94%
04:00 -2°C° 0.1 mm 3 mps 735 mmHg 93%
05:00 -2°C° 0 mm 3 mps 735 mmHg 92%
06:00 -2°C° 0 mm 3 mps 735 mmHg 91%
07:00 -2°C° 0 mm 3 mps 735 mmHg 90%
08:00 -2°C° 0 mm 3 mps 735 mmHg 88%
09:00 -2°C° 0 mm 2 mps 735 mmHg 87%
10:00 -2°C° 0 mm 2 mps 735 mmHg 85%
11:00 -1°C° 0 mm 2 mps 734 mmHg 83%
12:00 -1°C° 0 mm 3 mps 734 mmHg 82%
13:00 -1°C° 0 mm 3 mps 733 mmHg 80%
14:00 -1°C° 0.2 mm 3 mps 733 mmHg 85%
15:00 -1°C° 0.2 mm 3 mps 732 mmHg 91%
16:00 -2°C° 0.2 mm 2 mps 732 mmHg 96%
17:00 -2°C° 0.5 mm 3 mps 732 mmHg 96%
18:00 -2°C° 0.5 mm 3 mps 731 mmHg 97%
19:00 -2°C° 0.5 mm 3 mps 731 mmHg 97%
Show more